Location: Soapstone Prairie Natural Area
(40.9437°N, 105.0829°W)
Time: 22:04:01
(UTC-07:00)

ISS - Visible Passes

Search period start: 23 January 2017 00:00
Search period end: 02 February 2017 00:00
Orbit: 399 x 410 km, 51.6° (Epoch: 24 January)

Date Brightness Start Highest point End Pass type
(mag) Time Alt. Az. Time Alt. Az. Time Alt. Az.
26 Jan -0.9 19:14:54 10° SSW 19:15:53 17° SSW 19:15:53 17° SSW visible
27 Jan -1.8 18:23:21 10° S 18:25:52 20° SE 18:26:15 20° ESE visible
28 Jan -2.7 19:06:34 10° SW 19:09:12 55° WSW 19:09:12 55° WSW visible
29 Jan -3.0 18:14:25 10° SW 18:17:36 50° SE 18:19:23 22° ENE visible
29 Jan 0.0 19:51:27 10° W 19:52:03 14° WNW 19:52:03 14° WNW visible
30 Jan -2.3 18:58:42 10° W 19:01:47 37° NNW 19:02:08 36° NNW visible
31 Jan -3.1 18:06:09 10° WSW 18:09:24 66° NW 18:12:08 14° NE visible
31 Jan -0.2 19:44:08 10° WNW 19:44:48 13° NW 19:44:48 13° NW visible
01 Feb -1.4 18:51:10 10° WNW 18:53:49 22° NNW 18:54:43 20° N visible
